OBJECT G, 60209

Orbit data source: Space-Track

You're viewing an Uncataloged Satellite

Recently launched and/or uncataloged satellites may have evolving metadata. Metadata may include but not limited to: Owner, Maufacturer, Bus, Motor, and Mission.

OBJECT G, 60209 is an American satellite in SSO that was launched on Thu, 04 Jul 2024 UTC via an FIREFLY ALPHA launch vehicle from the Air Force Western Test Range (AFWTR). Unknown objects in Earth's orbit typically refer to objects detected orbiting the Earth but have not yet been identified or cataloged. These objects could be anything from previously untracked satellites, spent rocket stages, debris from satellite collisions, or even natural meteoroids temporarily captured by Earth's gravity.

Loading next visibility...
Identifier
60209, 2024-125G
Orbit
SSO
Country
Flag of USUS
Related business
Flag of USUniversity of Maine (US)
Manufacturer
UME
Mission
Operational Amateur Science
Bus & Motor
CUBESAT 3U, Unknown motor
Mass
3 kg wet, 3 kg dry
Launch date (UTC)
2024-07-04 (1 year ago)
Launch vehicle
FIREFLY ALPHA
Launch site
Air Force Western Test Range (AFWTR)
Object type
Unknown
Shape & HBR
Box, 0.1 m
Radar Cross Section
0.035 m², Small (<0.1 m²)

Expand to show TLE details & history
Last TLE update: 22 hours ago

TLE from 22 hours ago
0 OBJECT G
1 60209U 24125G   25349.50633947  .00024493  00000-0  49377-3 0  9996
2 60209  97.2524 199.8801 0014343 167.4470 192.7140 15.46431890 81035
Epoch: 2025-12-15T12:09Z
TLE epoch observation values (Epoch: 2025-12-15T12:09:07.730Z)
Latitude
-0°
Longitude
-66.80603°
Altitude
439.829 km
Speed
7.643 km/s
True Right ascension
13h 19m 31s
True Declination
0° 00' 00"
Sunlit
Object was in daylight at epoch
Visualization orbit readout
Latitude
Unknown
Longitude
Unknown
Altitude
Unknown
Speed
Unknown
Apparent Right ascension
Unknown
Apparent Declination
Unknown
Sunlit
N/A
Visualization observer readout
Local Sidereal Time
08:40:38
Azimuth
Unknown
Elevation
Unknown
Doppler factor
Unknown
Orbital elements
Apogee altitude
433.855 km
Perigee altitude
414.342 km
Semi-major axis
6,802.235 km
Eccentricity
0.00143
Inclination
97.2524°
RAAN
199.8801°
Arg. of periapsis
167.447°
True anomaly
192.67789°
Mean anomaly
192.714°
Eccentric anomaly
192.69594°
Mean motion
3.86871 °/min
Orbital period
93.05 mins
BSTAR
0.00049377
Loading maneuver chart data...
Computing Atmospheric mass density...
Loading historical data...
Loading historical data...
Loading historical data...
Loading historical data...
Loading historical data...
Loading historical data...
Loading historical data...

Documentation

Showing up to 5 results
|